EW3064 Weather Reports


time (UTC)temp
C
wind
direction
speed
KPH
gust
KPH
rain 1hr
cm
rain 24hr
cm
rain mn
cm
humidity
%
barometer
mb
20260505194524 18 291 8.0 17.7 0.00 0.00 0.00 64 1016.6
20260505193523 18 271 4.8 17.7 0.00 0.00 0.00 64 1016.6
20260505192451 18 268 8.0 17.7 0.00 0.00 0.00 66 1016.6
20260505191449 18 275 8.0 20.9 0.00 0.00 0.00 67 1016.6
20260505190417 17 279 8.0 20.9 0.00 0.00 0.00 68 1016.6
20260505185417 17 289 8.0 16.1 0.00 0.00 0.00 65 1016.6
20260505184313 17 275 4.8 14.5 0.00 0.00 0.00 67 1016.9
20260505183312 17 285 8.0 20.9 0.00 0.00 0.00 67 1016.9
20260505182311 17 287 8.0 20.9 0.00 0.00 0.00 68 1016.9
20260505181310 17 280 4.8 12.9 0.00 0.00 0.00 69 1016.9
20260505180309 16 289 3.2 14.5 0.00 0.00 0.00 71 1016.9
20260505175308 16 286 3.2 19.3 0.00 0.00 0.00 71 1016.9
20260505174307 16 285 4.8 14.5 0.00 0.00 0.00 69 1016.9
20260505173306 16 312 3.2 11.3 0.00 0.00 0.00 70 1016.9
20260505172306 15 291 4.8 14.5 0.00 0.00 0.00 72 1016.9
20260505171304 15 277 8.0 14.5 0.00 0.00 0.00 73 1016.9
20260505170303 15 290 4.8 12.9 0.00 0.00 0.00 75 1016.9
20260505165302 15 288 4.8 12.9 0.00 0.00 0.00 77 1016.9
20260505164230 13 276 4.8 17.7 0.00 0.00 0.00 80 1016.9
20260505163229 13 268 8.0 17.7 0.00 0.00 0.00 79 1017.3
20260505162228 13 252 4.8 19.3 0.00 0.00 0.00 81 1017.3
20260505161227 13 246 6.4 19.3 0.00 0.00 0.00 82 1017.3
20260505160226 12 298 1.6 11.3 0.00 0.00 0.00 83 1017.3
20260505153223 12 254 4.8 11.3 0.00 0.00 0.00 85 1017.3
20260505152222 12 288 3.2 8.0 0.00 0.00 0.00 86 1017.3
20260505151150 12 253 1.6 9.7 0.00 0.00 0.00 86 1017.3
20260505150150 12 245 3.2 9.7 0.00 0.00 0.00 87 1017.3
20260505140144 11 283 1.6 8.0 0.00 0.00 0.00 89 1016.9
20260505130107 11 299 1.6 6.4 0.00 0.00 0.00 89 1016.3
20260505124105 11 171 1.6 3.2 0.00 0.00 0.00 88 1016.3
20260505123104 11 171 1.6 6.4 0.00 0.00 0.00 88 1016.3
20260505122103 11 171 1.6 6.4 0.00 0.00 0.00 88 1016.3
20260505121103 11 290 1.6 11.3 0.00 0.00 0.00 88 1015.9
20260505115959 11 239 1.6 12.9 0.00 0.00 0.00 88 1015.9
20260505114958 11 299 1.6 12.9 0.00 0.00 0.00 88 1015.9
20260505113956 11 274 1.6 8.0 0.00 0.00 0.00 88 1015.9
20260505112955 12 249 3.2 9.7 0.00 0.00 0.00 88 1015.9
20260505111954 12 304 3.2 9.7 0.00 0.00 0.00 87 1015.9
20260505110953 12 287 3.2 9.7 0.00 0.00 0.00 87 1015.9
20260505101948 13 268 3.2 9.7 0.00 0.00 0.00 85 1015.6
20260505100947 13 278 1.6 11.3 0.00 0.00 0.00 85 1015.6
20260505095946 13 294 3.2 11.3 0.00 0.00 0.00 85 1015.2
20260505094945 13 271 3.2 9.7 0.00 0.00 0.00 85 1015.2
20260505093913 13 253 3.2 9.7 0.00 0.00 0.00 84 1015.2
20260505092912 13 253 3.2 9.7 0.00 0.00 0.00 83 1015.2
20260505091911 13 283 4.8 9.7 0.00 0.00 0.00 83 1014.9
20260505090910 14 284 6.4 8.0 0.00 0.00 0.00 82 1014.9
20260505085909 14 229 3.2 6.4 0.00 0.00 0.00 81 1014.9
20260505084908 15 232 3.2 6.4 0.00 0.00 0.00 81 1014.9
20260505083908 15 209 1.6 6.4 0.00 0.00 0.00 81 1014.9
20260505082907 15 209 1.6 8.0 0.00 0.00 0.00 81 1014.9
20260505081905 15 339 1.6 8.0 0.00 0.00 0.00 80 1014.9
20260505080904 15 291 0.0 0.0 0.00 0.00 0.00 80 1014.9
20260505075903 15 291 0.0 0.0 0.00 0.00 0.00 79 1014.9
20260505074831 15 291 0.0 0.0 0.00 0.00 0.00 79 1014.9
20260505073759 15 291 0.0 0.0 0.00 0.00 0.00 78 1014.6
20260505072758 15 291 0.0 0.0 0.00 0.00 0.00 78 1014.6
20260505071757 15 291 0.0 1.6 0.00 0.00 0.00 77 1014.6
20260505070756 15 291 1.6 1.6 0.00 0.00 0.00 76 1014.6
20260505065756 15 291 0.0 0.0 0.00 0.00 0.00 76 1014.6
20260505064755 15 291 0.0 3.2 0.00 0.00 0.00 76 1014.2
20260505063754 15 291 0.0 3.2 0.00 0.00 0.00 76 1014.2
20260505062753 15 291 0.0 0.0 0.00 0.00 0.00 76 1014.6
20260505061752 15 291 0.0 1.6 0.00 0.00 0.00 76 1014.2
20260505060751 15 291 1.6 1.6 0.00 0.00 0.00 77 1014.2
20260505055750 15 291 0.0 3.2 0.00 0.00 0.00 77 1014.2
20260505054748 15 291 1.6 3.2 0.00 0.00 0.00 77 1014.2
20260505053716 15 291 0.0 1.6 0.00 0.00 0.00 77 1014.2
20260505052715 15 291 1.6 1.6 0.00 0.00 0.00 77 1014.2
20260505051715 15 291 1.6 1.6 0.00 0.00 0.00 77 1014.2
20260505050713 15 291 1.6 3.2 0.00 0.00 0.00 76 1014.2
20260505041636 17 292 1.6 8.0 0.00 0.00 0.00 71 1013.5
20260505040635 17 291 3.2 8.0 0.00 0.00 0.00 70 1013.5
20260505035634 17 297 1.6 9.7 0.00 0.00 0.00 69 1013.2
20260505034633 17 287 3.2 9.7 0.00 0.00 0.00 68 1013.2
20260505033632 17 290 3.2 14.5 0.00 0.00 0.00 67 1013.2
20260505032630 18 310 4.8 14.5 0.00 0.00 0.00 66 1013.2
20260505031630 18 280 4.8 11.3 0.00 0.00 0.00 64 1012.9
20260505030629 18 327 1.6 8.0 0.00 0.00 0.00 61 1012.9
20260505025628 19 318 1.6 9.7 0.00 0.00 0.00 61 1012.5
20260505024627 19 290 3.2 9.7 0.00 0.00 0.00 59 1012.5
20260505023555 20 263 3.2 8.0 0.00 0.00 0.00 58 1012.5
20260505022553 20 296 3.2 12.9 0.00 0.00 0.00 56 1012.5
20260505021552 21 287 4.8 12.9 0.00 0.00 0.00 54 1012.5
20260505020551 21 292 4.8 11.3 0.00 0.00 0.00 52 1012.5
20260505015550 21 286 6.4 12.9 0.00 0.00 0.00 51 1012.5
20260505014550 21 255 8.0 14.5 0.00 0.00 0.00 50 1012.5
20260505013548 21 284 6.4 14.5 0.00 0.00 0.00 50 1012.5
20260505012547 22 284 4.8 14.5 0.00 0.00 0.00 47 1012.5
20260505011546 22 290 6.4 14.5 0.00 0.00 0.00 46 1012.5
20260505010545 22 284 4.8 16.1 0.00 0.00 0.00 46 1012.5
20260505005544 22 283 8.0 19.3 0.00 0.00 0.00 46 1012.5
20260505004543 22 278 9.7 19.3 0.00 0.00 0.00 46 1012.2
20260505003542 23 271 4.8 17.7 0.00 0.00 0.00 44 1012.2
20260505002541 23 279 8.0 17.7 0.00 0.00 0.00 43 1012.2
20260505001540 23 263 6.4 24.1 0.00 0.00 0.00 45 1012.2
20260505000539 23 275 4.8 24.1 0.00 0.00 0.00 46 1012.2
20260504235537 23 286 9.7 17.7 0.00 0.00 0.00 44 1012.2
20260504234536 23 290 6.4 19.3 0.00 0.00 0.00 44 1012.2
20260504233504 23 279 9.7 17.7 0.00 0.00 0.00 42 1012.2
20260504232504 23 278 4.8 17.7 0.00 0.00 0.00 45 1012.2
20260504231503 23 272 3.2 20.9 0.00 0.00 0.00 43 1012.2
20260504230502 23 281 8.0 20.9 0.00 0.00 0.00 44 1012.2
20260504225429 23 283 6.4 19.3 0.00 0.00 0.00 44 1012.2
20260504224428 23 289 6.4 20.9 0.00 0.00 0.00 46 1012.5
20260504223428 23 280 8.0 20.9 0.00 0.00 0.00 46 1012.5
20260504222427 23 269 11.3 17.7 0.00 0.00 0.00 45 1012.5
20260504221426 23 286 8.0 19.3 0.00 0.00 0.00 46 1012.5
20260504220425 23 290 8.0 19.3 0.00 0.00 0.00 43 1012.5
20260504215423 23 276 6.4 19.3 0.00 0.00 0.00 45 1012.5
20260504214352 23 287 8.0 20.9 0.00 0.00 0.00 45 1012.5
20260504213351 23 288 11.3 20.9 0.00 0.00 0.00 46 1012.5
20260504212350 23 291 8.0 17.7 0.00 0.00 0.00 46 1012.5
20260504211348 23 276 6.4 24.1 0.00 0.00 0.00 44 1012.9
20260504210347 23 287 4.8 24.1 0.00 0.00 0.00 46 1012.5
20260504205346 23 229 4.8 19.3 0.00 0.00 0.00 47 1012.5
20260504204345 23 275 6.4 19.3 0.00 0.00 0.00 49 1012.5
20260504203345 23 252 8.0 19.3 0.00 0.00 0.00 49 1012.9
20260504202344 23 351 3.2 17.7 0.00 0.00 0.00 49 1012.9
20260504201343 22 268 4.8 20.9 0.00 0.00 0.00 51 1012.5
20260504200311 22 268 6.4 20.9 0.00 0.00 0.00 50 1012.9
20260504195310 23 286 8.0 16.1 0.00 0.00 0.00 50 1012.9